パンスターズ彗星

P/2013 CU129 ( PanSTARRS )

English version
Home page
Updated on December 30, 2013

---------------------------------------------------------------------

・ プロフィール

発見日 2013年2月13日
発見光度 21.0等
発見者 Pan-STARRS 1 telescope (Haleakala)

・ 写真集

・ 軌道要素

Epoch 2013 Aug. 16.0 TT = JDT 2456520.5
T 2013 Aug. 6.93216 TT                                  MPC
q   0.8001473            (2000.0)            P               Q
n   0.20172502     Peri.  211.97225     -0.21335996     +0.96509170
a   2.8793616      Node    46.20990     -0.84618449     -0.10483399
e   0.7221095      Incl.   12.14765     -0.48831275     -0.24001633
P   4.89
From 152 observations 2013 Feb. 1-Dec. 23, mean residual 0".5.

・ 光度変化

        H = 16.5  G = 0.15                     [   ,-61]  (              〜2013年 6月 6日)
        m1 = 16.0 + 5 logΔ + 25.0 log r(t-5)  [-61, 73]  (2013年 6月 6日〜2013年10月18日)
        H = 16.5  G = 0.15                     [ 73,   ]  (2013年10月18日〜              )

        ※ 緑色の曲線は、H = 16.5  G = 0.15 の光度曲線です。

---------------------------------------------------------------------

軌道要素はM.P.E.C. 2013-Y32に掲載されたものです。
光度グラフはComet for Windowsで作成したものです。

---------------------------------------------------------------------

Copyright(C) Seiichi Yoshida (comet@aerith.net). All rights reserved.